Home > Time Zones > World Clock > Weather > Russia > Ufa > Past weeks

Flag for Russia Weather past 2 weeks in Ufa, Russia

Now
63 °F

Partly sunny.


Feels Like: 63 °F
Forecast: 56 / 67 °F
Wind: 6 mph from Southwest

Location: Ufa

Current Time: Jul 5, 2015 at 11:17:04 PM

Latest Report: Jul 5, 2015 at 10:30 PM


Visibility: N/A

Pressure: 29.62 "Hg

Humidity: 94%

Dew point: 61 °F

Location of UfaLocation

Historic Weather in Ufa — Graph

°F

Ufa temperature yesterday

Maximum temperature yesterday: 61 °F (at 12:00 PM)
Minimum temperature yesterday: 46 °F (at 5:00 AM)
Average temperature yesterday: 54 °F

Past Weeks' High & Low Weather Summary

 TemperatureHumidityPressure
High95 °F (Jun 29, 6:00 PM)100% (Jun 27, 6:00 AM)30.07 "Hg (Jun 27, 6:00 AM)
Low46 °F (Jul 4, 5:00 AM)26% (Jun 23, 3:30 PM)29.62 "Hg (Jul 5, 7:30 PM)
Average73 °F70%29.83 "Hg
* Reported Jun 20 10:00 PM — Jul 5 10:00 PM, Ufa, Weather by CustomWeather, © 2015

Note: Actual official high and low records may vary slightly from our data, if they occured in-between our weather recording intervals... More about our weather records

Advertising

Ufa weather history for previous 24 hours

 ConditionsComfort  
Time TempWeatherWind HumidityBarometerVisibility
10:00 PM
Sun, Jul 5
63 °FPartly sunny.8 mph94%29.62 "HgN/A
9:30 PM64 °FThunderstorms. Overcast.17 mph83%29.62 "HgN/A
9:00 PM66 °FThunderstorms. Overcast.15 mph78%29.62 "HgN/A
8:30 PM66 °FThundershowers. Partly sunny.8 mph78%29.62 "HgN/A
8:00 PM68 °FThundershowers. Partly sunny.15 mph73%29.62 "HgN/A
7:30 PM70 °FBroken clouds.10 mph73%29.62 "HgN/A
7:00 PM72 °FBroken clouds.13 mph69%29.65 "HgN/A
6:30 PM72 °FPartly sunny.13 mph65%29.68 "HgN/A
6:00 PM73 °FPartly sunny.10 mph65%29.68 "HgN/A
5:30 PM72 °FBroken clouds.10 mph65%29.71 "HgN/A
5:00 PM70 °FBroken clouds.10 mph69%29.71 "HgN/A
4:30 PM70 °FBroken clouds.13 mph64%29.74 "HgN/A
4:00 PM70 °FPartly sunny.13 mph64%29.74 "HgN/A
3:30 PM70 °FPartly sunny.8 mph73%29.77 "HgN/A
3:00 PM68 °FPartly sunny.8 mph73%29.77 "HgN/A
2:30 PM64 °FSprinkles. Overcast.8 mph88%29.80 "HgN/A
2:00 PM68 °FSprinkles. Mostly cloudy.10 mph69%29.80 "HgN/A
1:30 PM70 °FPartly sunny.8 mph60%29.80 "HgN/A
1:00 PM68 °FPartly sunny.10 mph64%29.80 "HgN/A
12:30 PM68 °FPartly sunny.6 mph60%29.80 "HgN/A
12:00 PM66 °FPartly sunny.6 mph64%29.80 "HgN/A
11:30 AM64 °FPartly sunny.3 mph68%29.80 "HgN/A
11:00 AM64 °FPartly sunny.6 mph68%29.80 "HgN/A
10:30 AM64 °FPartly sunny.6 mph68%29.80 "HgN/A
10:00 AM63 °FPartly sunny.6 mph73%29.83 "HgN/A
9:30 AM63 °FPartly sunny.8 mph73%29.83 "HgN/A
8:30 AM59 °FPartly sunny.6 mph88%29.83 "HgN/A
8:00 AM59 °FBroken clouds.3 mph88%29.83 "HgN/A
7:30 AM57 °FPartly sunny.8 mph94%29.83 "HgN/A
7:00 AM59 °FPartly sunny.3 mph94%29.83 "HgN/A
6:30 AM57 °FFog.3 mph94%29.80 "Hg2 mi
6:00 AM55 °FFog.1 mph100%29.80 "Hg2 mi
5:30 AM55 °FFog.3 mph100%29.80 "Hg2 mi
5:00 AM55 °FPartly cloudy.6 mph94%29.80 "HgN/A
4:30 AM55 °FPassing clouds.3 mph100%29.80 "HgN/A
4:00 AM55 °FPassing clouds.8 mph94%29.80 "HgN/A
3:30 AM55 °FPassing clouds.6 mph94%29.80 "HgN/A
3:00 AM54 °FPassing clouds.6 mph100%29.80 "HgN/A
2:30 AM52 °FPassing clouds.6 mph100%29.80 "HgN/A
1:30 AM54 °FOvercast.6 mph100%29.80 "HgN/A
1:00 AM54 °FOvercast.3 mph100%29.80 "HgN/A
12:30 AM54 °FPassing clouds.3 mph94%29.80 "HgN/A
12:00 AM54 °FPassing clouds.3 mph94%29.80 "HgN/A
11:30 PM
Sat, Jul 4
54 °FOvercast.1 mph94%29.80 "HgN/A
11:00 PM54 °FOvercast.1 mph94%29.80 "HgN/A
Weather by CustomWeather, © 2015

See weather overviewHow to use our weather pages